GW0552 Weather Reports


time (UTC)temp
C
wind
direction
speed
KPH
gust
KPH
rain 1hr
cm
rain 24hr
cm
rain mn
cm
humidity
%
barometer
mb
20260508142916 16 124 3.2 3.2 0.00 0.00 0.00 53 1012.4
20260508142413 15 130 8.0 9.7 0.00 0.00 0.00 57 1012.4
20260508141909 15 148 1.6 3.2 0.00 0.00 0.00 59 1012.5
20260508141406 15 109 0.0 1.6 0.00 0.00 0.00 58 1012.6
20260508140904 14 114 8.0 9.7 0.00 0.00 0.00 58 1012.7
20260508140401 14 122 6.4 11.3 0.00 0.00 0.00 59 1012.6
20260508135856 13 71 9.7 11.3 0.00 0.00 0.00 59 1012.6
20260508135353 13 121 8.0 9.7 0.00 0.00 0.00 61 1012.6
20260508134849 13 120 11.3 12.9 0.00 0.00 0.00 60 1012.7
20260508134346 13 103 8.0 12.9 0.00 0.00 0.00 64 1012.6
20260508133843 12 135 1.6 1.6 0.00 0.00 0.00 65 1012.6
20260508133341 12 133 4.8 4.8 0.00 0.00 0.00 69 1012.7
20260508132837 12 109 3.2 3.2 0.00 0.00 0.00 75 1012.7
20260508132335 11 131 1.6 1.6 0.00 0.00 0.00 76 1012.9
20260508131832 11 120 0.0 0.0 0.00 0.00 0.00 83 1012.7
20260508131327 11 109 3.2 3.2 0.00 0.00 0.00 81 1012.9
20260508130824 10 117 0.0 0.0 0.00 0.00 0.00 86 1012.9
20260508130321 9 119 1.6 3.2 0.00 0.00 0.00 85 1012.9
20260508125817 8 121 3.2 3.2 0.00 0.00 0.00 88 1012.8
20260508125314 7 126 0.0 0.0 0.00 0.00 0.00 98 1012.7
20260508124812 6 125 0.0 1.6 0.00 0.00 0.00 99 1012.7
20260508124308 5 125 0.0 0.0 0.00 0.00 0.00 99 1012.8
20260508123807 5 127 0.0 0.0 0.00 0.00 0.00 99 1012.8
20260508123305 5 123 0.0 0.0 0.00 0.00 0.00 99 1013.0
20260508122801 4 126 0.0 0.0 0.00 0.00 0.00 99 1012.9
20260508122258 3 126 0.0 0.0 0.00 0.00 0.00 99 1012.7
20260508121755 3 126 0.0 0.0 0.00 0.00 0.00 99 1012.8
20260508121253 3 126 0.0 0.0 0.00 0.00 0.00 99 1012.9
20260508120750 2 126 0.0 0.0 0.00 0.00 0.00 99 1012.8
20260508120248 2 129 0.0 0.0 0.00 0.00 0.00 99 1012.7
20260508115746 2 129 0.0 0.0 0.00 0.00 0.00 99 1012.6
20260508115243 2 129 0.0 0.0 0.00 0.00 0.00 99 1012.8
20260508114739 1 130 0.0 0.0 0.00 0.00 0.00 99 1012.8
20260508114236 1 129 0.0 0.0 0.00 0.00 0.00 99 1012.9
20260508113732 1 129 0.0 0.0 0.00 0.00 0.00 99 1012.8
20260508113231 1 129 0.0 0.0 0.00 0.00 0.00 99 1012.8
20260508112721 1 129 0.0 0.0 0.00 0.00 0.00 99 1012.6
20260508112218 1 129 0.0 0.0 0.00 0.00 0.00 99 1012.8
20260508111715 1 129 0.0 0.0 0.00 0.00 0.00 99 1012.6
20260508111213 1 129 0.0 0.0 0.00 0.00 0.00 99 1012.7
20260508110709 0 129 0.0 0.0 0.00 0.00 0.00 99 1012.6
20260508110206 0 129 0.0 0.0 0.00 0.00 0.00 99 1012.4
20260508105700 0 128 0.0 0.0 0.00 0.00 0.00 99 1012.6
20260508105158 0 128 0.0 0.0 0.00 0.00 0.00 99 1012.4
20260508104655 0 128 0.0 0.0 0.00 0.00 0.00 99 1012.2
20260508104152 0 129 0.0 0.0 0.00 0.00 0.00 99 1012.4
20260508103649 0 128 0.0 0.0 0.00 0.00 0.00 99 1012.4
20260508103146 0 129 0.0 0.0 0.00 0.00 0.00 99 1012.5
20260508102643 0 129 0.0 0.0 0.00 0.00 0.00 99 1012.2
20260508102141 1 129 0.0 0.0 0.00 0.00 0.00 99 1012.2
20260508101638 0 128 0.0 0.0 0.00 0.00 0.00 99 1012.1
20260508101136 1 132 0.0 0.0 0.00 0.00 0.00 99 1012.0
20260508100633 1 132 0.0 0.0 0.00 0.00 0.00 99 1011.8
20260508100131 1 132 0.0 0.0 0.00 0.00 0.00 99 1012.0
20260508095627 1 132 0.0 0.0 0.00 0.00 0.00 99 1012.0
20260508095125 1 132 0.0 0.0 0.00 0.00 0.00 99 1011.8
20260508094621 1 132 0.0 0.0 0.00 0.00 0.00 99 1011.9
20260508094118 1 132 0.0 0.0 0.00 0.00 0.00 99 1012.0
20260508093615 1 132 0.0 0.0 0.00 0.00 0.00 99 1012.0
20260508093113 1 131 0.0 0.0 0.00 0.00 0.00 99 1011.9
20260508092610 1 131 0.0 0.0 0.00 0.00 0.00 99 1011.9
20260508092109 1 132 0.0 0.0 0.00 0.00 0.00 99 1011.9
20260508091605 1 131 0.0 0.0 0.00 0.00 0.00 99 1011.9
20260508091102 1 131 0.0 0.0 0.00 0.00 0.00 99 1011.9
20260508090600 1 131 0.0 0.0 0.00 0.00 0.00 99 1011.6
20260508090056 1 132 0.0 0.0 0.00 0.00 0.00 99 1011.8
20260508085553 1 132 0.0 0.0 0.00 0.00 0.00 99 1011.7
20260508085051 1 132 0.0 0.0 0.00 0.00 0.00 99 1011.9
20260508084547 1 131 0.0 0.0 0.00 0.00 0.00 99 1011.9
20260508084044 1 132 0.0 0.0 0.00 0.00 0.00 99 1011.8
20260508083541 1 132 0.0 0.0 0.00 0.00 0.00 99 1011.7
20260508083038 1 132 0.0 0.0 0.00 0.00 0.00 99 1011.8
20260508082534 1 132 0.0 0.0 0.00 0.00 0.00 99 1011.8
20260508082032 1 132 0.0 0.0 0.00 0.00 0.00 99 1011.7
20260508081529 1 131 0.0 0.0 0.00 0.00 0.00 99 1011.8
20260508081025 1 131 0.0 0.0 0.00 0.00 0.00 99 1011.7
20260508080523 1 131 0.0 0.0 0.00 0.00 0.00 99 1011.7
20260508080020 1 131 0.0 0.0 0.00 0.00 0.00 99 1011.8
20260508075516 1 132 0.0 0.0 0.00 0.00 0.00 99 1011.7
20260508075014 1 131 0.0 0.0 0.00 0.00 0.00 99 1011.7
20260508074512 1 132 0.0 0.0 0.00 0.00 0.00 99 1011.8
20260508074008 2 129 0.0 0.0 0.00 0.00 0.00 99 1011.7
20260508073506 1 128 0.0 0.0 0.00 0.00 0.00 99 1011.7
20260508073003 1 128 0.0 0.0 0.00 0.00 0.00 99 1011.7
20260508072459 1 128 0.0 0.0 0.00 0.00 0.00 99 1011.6
20260508071956 2 128 0.0 0.0 0.00 0.00 0.00 99 1011.7
20260508071454 2 128 0.0 0.0 0.00 0.00 0.00 99 1011.7
20260508070951 2 128 0.0 0.0 0.00 0.00 0.00 99 1011.6
20260508070449 2 133 0.0 0.0 0.00 0.00 0.00 99 1011.5
20260508065947 2 136 3.2 3.2 0.00 0.00 0.00 99 1011.6
20260508065445 2 141 1.6 3.2 0.00 0.00 0.00 99 1011.4
20260508064943 2 129 0.0 1.6 0.00 0.00 0.00 99 1011.5
20260508064440 2 131 0.0 0.0 0.00 0.00 0.00 99 1011.6
20260508063937 2 132 0.0 0.0 0.00 0.00 0.00 99 1011.7
20260508063435 2 133 3.2 3.2 0.00 0.00 0.00 99 1011.6
20260508062932 2 131 0.0 0.0 0.00 0.00 0.00 99 1011.8
20260508062430 2 131 0.0 0.0 0.00 0.00 0.00 99 1011.9
20260508061927 2 131 0.0 0.0 0.00 0.00 0.00 99 1011.7
20260508061424 2 131 1.6 1.6 0.00 0.00 0.00 99 1011.7
20260508060920 2 161 3.2 3.2 0.00 0.00 0.00 99 1012.0
20260508060418 2 142 3.2 3.2 0.00 0.00 0.00 99 1011.6
20260508055913 2 135 0.0 0.0 0.00 0.00 0.00 98 1011.8
20260508055410 2 132 0.0 0.0 0.00 0.00 0.00 98 1011.8
20260508054907 2 135 0.0 0.0 0.00 0.00 0.00 98 1012.0
20260508054404 3 133 0.0 0.0 0.00 0.00 0.00 98 1011.9
20260508053901 2 132 0.0 0.0 0.00 0.00 0.00 98 1011.9
20260508053358 3 134 0.0 0.0 0.00 0.00 0.00 97 1012.0
20260508052856 3 133 0.0 0.0 0.00 0.00 0.00 97 1011.6
20260508052353 3 132 0.0 0.0 0.00 0.00 0.00 97 1011.7
20260508051849 3 132 0.0 0.0 0.00 0.00 0.00 97 1011.7
20260508051345 3 131 0.0 0.0 0.00 0.00 0.00 97 1011.7
20260508050841 3 131 0.0 0.0 0.00 0.00 0.00 97 1011.7
20260508050338 3 132 0.0 0.0 0.00 0.00 0.00 98 1011.7
20260508045834 3 133 0.0 1.6 0.00 0.00 0.00 98 1011.7
20260508045332 3 136 1.6 1.6 0.00 0.00 0.00 98 1011.9
20260508044829 3 135 1.6 3.2 0.00 0.00 0.00 97 1012.0
20260508044325 3 133 1.6 1.6 0.00 0.00 0.00 97 1011.8
20260508043822 3 132 0.0 0.0 0.00 0.00 0.00 97 1011.9
20260508043319 3 134 1.6 1.6 0.00 0.00 0.00 97 1011.9
20260508042816 3 136 1.6 3.2 0.00 0.00 0.00 97 1011.9
20260508042314 3 135 0.0 0.0 0.00 0.00 0.00 96 1011.7
20260508041810 4 134 1.6 1.6 0.00 0.00 0.00 96 1011.8
20260508041306 4 138 3.2 3.2 0.00 0.00 0.00 96 1011.9
20260508040803 4 136 1.6 3.2 0.00 0.00 0.00 96 1011.8
20260508040301 4 136 1.6 3.2 0.00 0.00 0.00 96 1011.6
20260508035758 4 144 4.8 4.8 0.00 0.00 0.00 96 1011.8
20260508035255 4 136 3.2 3.2 0.00 0.00 0.00 95 1011.6
20260508034751 4 136 3.2 3.2 0.00 0.00 0.00 95 1012.0
20260508034249 5 135 1.6 3.2 0.00 0.00 0.00 95 1011.8
20260508033746 5 144 3.2 3.2 0.00 0.00 0.00 94 1011.9
20260508033244 5 133 3.2 3.2 0.00 0.00 0.00 94 1011.9
20260508032741 5 138 3.2 3.2 0.00 0.00 0.00 94 1011.8
20260508032238 5 132 1.6 3.2 0.00 0.00 0.00 93 1011.7
20260508031735 5 131 1.6 1.6 0.00 0.00 0.00 93 1011.8
20260508031231 5 131 1.6 1.6 0.00 0.00 0.00 92 1011.8
20260508030728 5 132 1.6 1.6 0.00 0.00 0.00 92 1011.9
20260508030225 5 134 3.2 3.2 0.00 0.00 0.00 91 1011.8
20260508025722 5 131 1.6 1.6 0.00 0.00 0.00 91 1011.8
20260508025219 5 132 1.6 1.6 0.00 0.00 0.00 90 1011.7
20260508024714 5 134 1.6 1.6 0.00 0.00 0.00 90 1011.7
20260508024212 6 132 1.6 1.6 0.00 0.00 0.00 90 1011.6
20260508023708 6 132 1.6 1.6 0.00 0.00 0.00 89 1011.6
20260508023206 6 133 1.6 1.6 0.00 0.00 0.00 87 1011.6
20260508022701 6 132 1.6 1.6 0.00 0.00 0.00 86 1011.3
20260508022159 6 128 1.6 1.6 0.00 0.00 0.00 86 1011.5
20260508021655 6 126 1.6 1.6 0.00 0.00 0.00 84 1011.3
20260508021150 6 126 0.0 0.0 0.00 0.00 0.00 83 1011.2
20260508020648 7 126 0.0 0.0 0.00 0.00 0.00 82 1011.5
20260508020146 7 126 0.0 0.0 0.00 0.00 0.00 80 1011.1
20260508015643 7 126 0.0 0.0 0.00 0.00 0.00 80 1011.1
20260508015140 7 126 0.0 0.0 0.00 0.00 0.00 81 1011.0
20260508014636 7 126 0.0 0.0 0.00 0.00 0.00 81 1010.9
20260508014132 7 128 0.0 0.0 0.00 0.00 0.00 80 1010.9
20260508013629 7 132 0.0 0.0 0.00 0.00 0.00 80 1010.9
20260508013126 8 130 1.6 1.6 0.00 0.00 0.00 79 1010.8
20260508012623 8 137 0.0 1.6 0.00 0.00 0.00 76 1010.6
20260508012120 8 130 0.0 0.0 0.00 0.00 0.00 75 1010.6
20260508011619 8 131 0.0 0.0 0.00 0.00 0.00 72 1010.4
20260508011115 9 130 0.0 0.0 0.00 0.00 0.00 70 1010.4
20260508010612 9 130 0.0 0.0 0.00 0.00 0.00 69 1010.3
20260508010110 10 130 0.0 0.0 0.00 0.00 0.00 67 1010.2
20260508005606 10 130 0.0 0.0 0.00 0.00 0.00 66 1010.1
20260508005103 10 130 0.0 0.0 0.00 0.00 0.00 64 1010.2
20260508004559 10 130 0.0 0.0 0.00 0.00 0.00 64 1010.2
20260508004056 11 130 0.0 0.0 0.00 0.00 0.00 63 1010.3
20260508003552 11 128 0.0 0.0 0.00 0.00 0.00 60 1010.0
20260508003050 11 127 0.0 0.0 0.00 0.00 0.00 58 1009.9
20260508002546 12 128 1.6 1.6 0.00 0.00 0.00 55 1009.9
20260508002044 12 132 0.0 0.0 0.00 0.00 0.00 54 1010.0
20260508001539 13 132 0.0 0.0 0.00 0.00 0.00 50 1009.8
20260508001035 14 127 0.0 0.0 0.00 0.00 0.00 45 1009.9
20260508000531 15 111 1.6 1.6 0.00 0.00 0.00 39 1009.5
20260508000029 15 85 4.8 4.8 0.00 0.00 0.00 38 1009.4
20260507235525 15 154 1.6 1.6 0.00 0.00 0.00 38 1009.4
20260507235023 15 128 1.6 1.6 0.00 0.00 0.00 37 1009.4
20260507234519 15 116 1.6 1.6 0.00 0.00 0.00 38 1009.3
20260507234016 15 144 3.2 3.2 0.00 0.00 0.00 38 1009.4
20260507233512 16 67 4.8 8.0 0.00 0.00 0.00 37 1009.2
20260507233011 16 120 3.2 3.2 0.00 0.00 0.00 36 1009.3
20260507232507 16 133 3.2 4.8 0.00 0.00 0.00 36 1009.2
20260507232005 16 136 3.2 4.8 0.00 0.00 0.00 35 1009.0
20260507231501 16 7 4.8 9.7 0.00 0.00 0.00 35 1008.9
20260507230958 16 52 4.8 8.0 0.00 0.00 0.00 36 1009.3
20260507230455 16 72 4.8 4.8 0.00 0.00 0.00 36 1009.1
20260507225950 16 330 8.0 11.3 0.00 0.00 0.00 37 1009.3
20260507225446 16 146 3.2 3.2 0.00 0.00 0.00 36 1009.1
20260507224943 16 20 4.8 4.8 0.00 0.00 0.00 34 1009.0
20260507224439 16 331 12.9 16.1 0.00 0.00 0.00 34 1009.0
20260507223936 17 150 4.8 4.8 0.00 0.00 0.00 37 1009.1
20260507223432 17 117 4.8 8.0 0.00 0.00 0.00 39 1009.0
20260507222929 17 331 4.8 9.7 0.00 0.00 0.00 37 1009.2
20260507222426 17 155 4.8 4.8 0.00 0.00 0.00 38 1008.9
20260507221922 17 92 1.6 3.2 0.00 0.00 0.00 38 1009.0
20260507221419 17 131 4.8 4.8 0.00 0.00 0.00 38 1009.0
20260507220915 17 355 9.7 11.3 0.00 0.00 0.00 38 1008.9
20260507220413 17 300 4.8 8.0 0.00 0.00 0.00 40 1008.8
20260507215909 17 315 6.4 9.7 0.00 0.00 0.00 40 1008.7
20260507215406 17 64 6.4 8.0 0.00 0.00 0.00 39 1008.5
20260507214903 17 176 8.0 12.9 0.00 0.00 0.00 39 1008.7
20260507214401 17 108 3.2 4.8 0.00 0.00 0.00 39 1008.8
20260507213856 18 7 8.0 9.7 0.00 0.00 0.00 39 1008.7
20260507213353 17 215 11.3 17.7 0.00 0.00 0.00 41 1008.7
20260507212850 18 64 8.0 11.3 0.00 0.00 0.00 40 1008.6
20260507212346 17 129 0.0 0.0 0.00 0.00 0.00 42 1008.4
20260507211842 18 106 3.2 4.8 0.00 0.00 0.00 40 1008.4
20260507211339 18 140 1.6 3.2 0.00 0.00 0.00 40 1008.4
20260507210836 18 60 3.2 4.8 0.00 0.00 0.00 40 1008.3
20260507210333 18 149 4.8 4.8 0.00 0.00 0.00 43 1008.4
20260507205829 17 108 6.4 11.3 0.00 0.00 0.00 40 1008.3
20260507205327 17 32 4.8 4.8 0.00 0.00 0.00 41 1008.3
20260507204822 18 264 8.0 12.9 0.00 0.00 0.00 40 1008.3
20260507204320 18 153 4.8 4.8 0.00 0.00 0.00 43 1008.2
20260507203818 18 348 9.7 12.9 0.00 0.00 0.00 42 1008.1
20260507203315 18 134 1.6 4.8 0.00 0.00 0.00 40 1008.1
20260507202811 18 124 0.0 1.6 0.00 0.00 0.00 42 1008.0
20260507202308 18 131 0.0 0.0 0.00 0.00 0.00 44 1008.1
20260507201803 17 225 3.2 4.8 0.00 0.00 0.00 44 1008.2
20260507201259 18 139 4.8 9.7 0.00 0.00 0.00 42 1008.0
20260507200756 17 316 1.6 3.2 0.00 0.00 0.00 43 1008.2
20260507200251 17 46 4.8 9.7 0.00 0.00 0.00 43 1008.1
20260507195748 18 2 4.8 8.0 0.00 0.00 0.00 46 1008.0
20260507195245 17 184 4.8 4.8 0.00 0.00 0.00 46 1008.2
20260507194743 17 149 3.2 3.2 0.00 0.00 0.00 47 1008.3
20260507194238 17 3 9.7 16.1 0.00 0.00 0.00 44 1008.1
20260507193735 17 341 6.4 8.0 0.00 0.00 0.00 47 1008.4
20260507193232 16 126 3.2 3.2 0.00 0.00 0.00 47 1008.4
20260507192728 17 172 3.2 4.8 0.00 0.00 0.00 48 1008.4
20260507192225 17 126 0.0 1.6 0.00 0.00 0.00 45 1008.4
20260507191721 16 94 4.8 4.8 0.00 0.00 0.00 46 1008.5
20260507191218 17 351 4.8 4.8 0.00 0.00 0.00 46 1008.8
20260507190715 16 148 4.8 8.0 0.00 0.00 0.00 46 1008.8
20260507190213 17 5 11.3 17.7 0.00 0.00 0.00 45 1008.7
20260507185711 17 182 8.0 9.7 0.00 0.00 0.00 45 1009.0
20260507185208 17 144 3.2 3.2 0.00 0.00 0.00 52 1008.9
20260507184706 16 138 4.8 9.7 0.00 0.00 0.00 47 1009.0
20260507184204 16 119 3.2 4.8 0.00 0.00 0.00 46 1008.8
20260507183700 16 343 8.0 8.0 0.00 0.00 0.00 46 1008.8
20260507183157 17 126 4.8 9.7 0.00 0.00 0.00 46 1009.0
20260507182654 17 357 11.3 14.5 0.00 0.00 0.00 45 1009.1
20260507182149 17 144 0.0 1.6 0.00 0.00 0.00 45 1009.3
20260507181646 17 61 1.6 1.6 0.00 0.00 0.00 44 1009.0
20260507181143 17 110 4.8 4.8 0.00 0.00 0.00 47 1009.1
20260507180639 17 52 8.0 9.7 0.00 0.00 0.00 49 1009.0
20260507180136 16 289 6.4 9.7 0.00 0.00 0.00 49 1009.0
20260507175632 16 134 0.0 1.6 0.00 0.00 0.00 49 1009.1
20260507175129 17 129 4.8 8.0 0.00 0.00 0.00 49 1009.2
20260507174626 17 278 6.4 9.7 0.00 0.00 0.00 50 1009.0
20260507174124 16 103 4.8 4.8 0.00 0.00 0.00 51 1009.2
20260507173621 16 86 4.8 8.0 0.00 0.00 0.00 52 1009.1
20260507173118 16 129 1.6 3.2 0.00 0.00 0.00 52 1009.5
20260507172614 16 125 1.6 3.2 0.00 0.00 0.00 51 1009.0
20260507172112 17 339 8.0 9.7 0.00 0.00 0.00 53 1009.3
20260507171606 16 185 4.8 8.0 0.00 0.00 0.00 52 1009.5
20260507171104 16 74 6.4 8.0 0.00 0.00 0.00 52 1009.8
20260507170601 16 12 8.0 11.3 0.00 0.00 0.00 52 1009.8
20260507170058 16 108 3.2 4.8 0.00 0.00 0.00 54 1009.5
20260507165553 16 138 4.8 4.8 0.00 0.00 0.00 52 1009.7
20260507165049 16 174 6.4 8.0 0.00 0.00 0.00 51 1009.8
20260507164546 17 127 1.6 3.2 0.00 0.00 0.00 53 1009.5
20260507164043 16 83 4.8 4.8 0.00 0.00 0.00 50 1009.9
20260507163540 16 136 6.4 9.7 0.00 0.00 0.00 53 1009.8
20260507163039 16 178 1.6 3.2 0.00 0.00 0.00 51 1009.9
20260507162538 16 135 0.0 0.0 0.00 0.00 0.00 56 1009.8
20260507162036 16 116 4.8 4.8 0.00 0.00 0.00 51 1009.8
20260507161532 15 94 4.8 4.8 0.00 0.00 0.00 54 1009.9
20260507161029 16 288 6.4 9.7 0.00 0.00 0.00 54 1010.0
20260507160525 15 90 1.6 3.2 0.00 0.00 0.00 56 1010.0
20260507160021 15 127 0.0 0.0 0.00 0.00 0.00 56 1009.9
20260507155516 15 134 0.0 1.6 0.00 0.00 0.00 57 1010.2
20260507155014 14 254 6.4 8.0 0.00 0.00 0.00 56 1010.1
20260507154511 15 160 1.6 3.2 0.00 0.00 0.00 56 1010.2
20260507154009 16 79 4.8 4.8 0.00 0.00 0.00 56 1009.9
20260507153505 15 196 4.8 4.8 0.00 0.00 0.00 59 1010.1
20260507153001 15 192 3.2 8.0 0.00 0.00 0.00 59 1010.1
20260507152457 16 256 8.0 12.9 0.00 0.00 0.00 62 1010.0
20260507151953 15 111 0.0 0.0 0.00 0.00 0.00 56 1009.9
20260507151450 15 153 3.2 3.2 0.00 0.00 0.00 56 1010.2
20260507150946 15 225 8.0 9.7 0.00 0.00 0.00 58 1009.9
20260507150443 15 153 4.8 4.8 0.00 0.00 0.00 56 1009.9
20260507145940 15 122 0.0 0.0 0.00 0.00 0.00 57 1010.1
20260507145435 15 85 4.8 4.8 0.00 0.00 0.00 56 1010.1
20260507144933 15 166 4.8 4.8 0.00 0.00 0.00 58 1010.3
20260507144429 15 102 1.6 3.2 0.00 0.00 0.00 58 1010.3
20260507143927 14 136 1.6 1.6 0.00 0.00 0.00 61 1010.1
20260507143424 14 348 6.4 8.0 0.00 0.00 0.00 59 1010.3